Homer, AK

11:21 PM AKDT on September 18, 2019 (GMT -0800)
Homer

Weather History for PAHO - August, 2019

Change the Weather History Date:

Monday, August 19, 2019

  Actual Average Record
Temperature  
Mean Temperature 50 °F -  
Max Temperature 63 °F 59 °F 68 °F (1983)
Min Temperature 39 °F 46 °F 34 °F (1943)
Degree Days  
Heating Degree Days 14    
Moisture  
Dew Point 39 °F    
Average Humidity 63    
Maximum Humidity 83    
Minimum Humidity 39    
Precipitation  
Precipitation 0.00 in - - ()
Sea Level Pressure  
Sea Level Pressure 29.93 in    
Wind  
Wind Speed 3 mph (West)    
Max Wind Speed 12 mph    
Max Gust Speed -    
Visibility 10 miles    
Events      
Averages and records for this station are not official NWS values.
T = Trace of Precipitation, MM = Missing Value Source: NWS Daily Summary

Daily Weather History Graph

Daily Weather History Graph

Search for Another Location

Airport or City:

Astronomy

Aug. 19, 2019 Rise Set
Actual Time 6:31 AM AKDT 9:46 PM AKDT
Civil Twilight 5:42 AM AKDT 10:34 PM AKDT
Nautical Twilight 4:33 AM AKDT 11:42 PM AKDT
Astronomical Twilight 2:42 AM AKDT 1:36 AM AKDT
Moon 11:13 PM AKDT 11:13 AM AKDT
Length of Visible Light 16h 51m
Length of Day
15h 14m
Waning Gibbous, 84% of the Moon is Illuminated
Aug 19
Waning Gibbous
Aug 23
Last Quarter
Aug 30
New
Sep 5
First Quarter
Sep 13
Full

Hourly Weather History & Observations

Time (AKDT) Temp. Windchill Dew Point Humidity Pressure Visibility Wind Dir Wind Speed Gust Speed Precip Events Conditions
12:53 AM 46.9 °F - 36.0 °F 66% 29.98 in 10.0 mi Calm Calm - N/A   Clear
1:53 AM 50.0 °F - 39.0 °F 66% 29.98 in 10.0 mi Calm Calm - N/A   Clear
2:53 AM 44.1 °F 41.5 °F 35.1 °F 71% 29.97 in 10.0 mi NNE 4.6 mph - N/A   Clear
3:53 AM 43.0 °F - 37.0 °F 80% 29.97 in 10.0 mi Calm Calm - N/A   Clear
4:53 AM 44.1 °F 42.5 °F 37.9 °F 79% 29.97 in 10.0 mi NNE 3.5 mph - N/A   Clear
5:53 AM 42.1 °F 39.2 °F 37.0 °F 82% 29.97 in 10.0 mi NNE 4.6 mph - N/A   Clear
6:53 AM 39.9 °F - 35.1 °F 83% 29.97 in 10.0 mi Calm Calm - N/A   Clear
7:53 AM 44.1 °F 42.5 °F 37.9 °F 79% 29.97 in 10.0 mi ENE 3.5 mph - N/A   Clear
8:53 AM 50.0 °F - 39.9 °F 68% 29.97 in 10.0 mi Calm Calm - N/A   Clear
9:53 AM 54.0 °F - 39.0 °F 57% 29.96 in 10.0 mi ENE 6.9 mph - N/A   Clear
10:53 AM 55.0 °F - 39.9 °F 57% 29.95 in 10.0 mi East 8.1 mph - N/A   Clear
11:53 AM 57.0 °F - 39.0 °F 51% 29.95 in 10.0 mi ESE 8.1 mph - N/A   Clear
12:53 PM 61.0 °F - 41.0 °F 48% 29.94 in 10.0 mi SSW 4.6 mph - N/A   Clear
2:53 PM 62.1 °F - 45.0 °F 53% 29.91 in 10.0 mi SSW 9.2 mph - N/A   Clear
3:53 PM 60.1 °F - 46.9 °F 62% 29.91 in 10.0 mi SSW 11.5 mph - N/A   Clear
4:53 PM 62.1 °F - 41.0 °F 46% 29.89 in 10.0 mi West 11.5 mph - N/A   Clear
5:53 PM 62.1 °F - 37.0 °F 39% 29.89 in 10.0 mi West 10.4 mph - N/A   Clear
6:53 PM 57.9 °F - 37.9 °F 47% 29.88 in 10.0 mi WSW 8.1 mph - N/A   Clear
7:53 PM 60.1 °F - 39.0 °F 46% 29.87 in 10.0 mi West 5.8 mph - N/A   Clear
8:53 PM 55.9 °F - 39.9 °F 55% 29.87 in 10.0 mi WSW 3.5 mph - N/A   Clear
9:53 PM 54.0 °F - 43.0 °F 66% 29.87 in 10.0 mi Calm Calm - N/A   Clear
10:53 PM 52.0 °F - 42.1 °F 69% 29.88 in 10.0 mi Calm Calm - N/A   Clear
11:53 PM 51.1 °F - 42.1 °F 71% 29.87 in 10.0 mi NE 4.6 mph - N/A   Clear